Location: Dehesa de la Cepeda
(40.6574°N, 4.3013°W)
Time: 06:46:19
(UTC+00:00)

Explorer 7 - All Passes

Search period start: 31 July 2021 00:00
Search period end: 10 August 2021 00:00
Orbit: 484 x 676 km, 50.3° (Epoch: 30 July)

Date Brightness Start Highest point End Pass type
(mag) Time Alt. Az. Time Alt. Az. Time Alt. Az.
31 Jul - 05:09:35 10° SW 05:13:19 60° SE 05:17:11 10° ENE daylight
31 Jul - 06:50:30 10° W 06:53:59 31° NNW 06:57:38 10° NE daylight
31 Jul - 08:32:15 10° NW 08:35:23 21° N 08:38:38 10° NE daylight
31 Jul - 10:12:50 10° NW 10:16:43 36° NNE 10:20:50 10° E daylight
31 Jul - 11:53:08 10° WNW 11:57:23 56° SW 12:01:53 10° SE daylight
01 Aug - 03:35:43 10° SSE 03:37:40 14° SE 03:39:39 10° E visible
01 Aug - 05:13:49 10° WSW 05:17:35 83° NW 05:21:32 10° NE daylight
01 Aug - 06:55:14 10° WNW 06:58:30 25° NNW 07:01:55 10° NE daylight
01 Aug - 08:36:46 10° NW 08:39:58 22° N 08:43:19 10° ENE daylight
01 Aug - 10:17:05 10° NW 10:21:10 48° NNE 10:25:29 10° ESE daylight
01 Aug - 11:57:39 10° WNW 12:01:36 35° SW 12:05:48 10° SSE daylight
02 Aug - 03:38:45 10° S 03:41:46 23° SE 03:44:50 10° E visible
02 Aug - 05:18:14 10° WSW 05:21:57 53° NNW 05:25:49 10° NE daylight
02 Aug - 06:59:58 10° WNW 07:03:04 22° N 07:06:17 10° NE daylight
02 Aug - 08:41:10 10° NW 08:44:32 24° NNE 08:48:03 10° ENE daylight
02 Aug - 10:21:21 10° NW 10:25:32 69° NNE 10:29:59 10° ESE daylight
02 Aug - 12:02:23 10° W 12:05:47 22° SW 12:09:18 10° S daylight
03 Aug - 03:42:25 10° SSW 03:45:55 39° SE 03:49:31 10° ENE visible
03 Aug - 05:22:49 10° W 05:26:22 37° NNW 05:30:04 10° NE daylight
03 Aug - 07:04:40 10° NW 07:07:39 20° N 07:10:45 10° NE daylight
03 Aug - 08:45:28 10° NW 08:49:03 29° NNE 08:52:49 10° E daylight
03 Aug - 10:25:40 10° WNW 10:29:51 79° SW 10:34:19 10° SE daylight
03 Aug - 12:07:42 10° W 12:09:53 14° SW 12:12:08 10° SSW daylight
04 Aug - 03:46:26 10° SW 03:50:09 68° SE 03:53:58 10° ENE visible
04 Aug - 05:27:31 10° W 05:30:51 28° NNW 05:34:19 10° NE daylight
04 Aug - 07:09:15 10° NW 07:12:15 20° N 07:15:20 10° NE daylight
04 Aug - 08:49:44 10° NW 08:53:32 37° NNE 08:57:33 10° E daylight
04 Aug - 10:30:03 10° WNW 10:34:07 49° SW 10:38:25 10° SE daylight
05 Aug - 02:12:10 10° S 02:14:27 15° SE 02:16:45 10° E visible
05 Aug - 03:50:43 10° WSW 03:54:27 75° NNW 03:58:17 10° NE visible
05 Aug - 05:32:15 10° WNW 05:35:23 23° NNW 05:38:37 10° NE daylight
05 Aug - 07:13:43 10° NW 07:16:50 22° N 07:20:03 10° ENE daylight
05 Aug - 08:53:59 10° NW 08:57:57 51° NNE 09:02:10 10° ESE daylight
05 Aug - 10:34:36 10° WNW 10:38:20 31° SW 10:42:14 10° SSE daylight
06 Aug - 02:15:24 10° SSW 02:18:34 26° SE 02:21:45 10° ENE visible
06 Aug - 03:55:11 10° WSW 03:58:48 48° NNW 04:02:33 10° NE visible
06 Aug - 05:37:00 10° WNW 05:39:57 21° N 05:42:59 10° NE daylight
06 Aug - 07:18:06 10° NW 07:21:23 24° NNE 07:24:48 10° ENE daylight
06 Aug - 08:58:15 10° NW 09:02:18 76° NNE 09:06:38 10° ESE daylight
06 Aug - 10:39:28 10° W 10:42:28 19° SW 10:45:37 10° S daylight
07 Aug - 02:19:10 10° SSW 02:22:44 44° SE 02:26:21 10° ENE visible
07 Aug - 03:59:47 10° W 04:03:14 34° NNW 04:06:47 10° NE visible
07 Aug - 05:41:40 10° NW 05:44:32 20° N 05:47:28 10° NE daylight
07 Aug - 07:22:23 10° NW 07:25:53 30° NNE 07:29:33 10° E daylight
07 Aug - 09:02:33 10° WNW 09:06:36 70° SW 09:10:54 10° SE daylight
07 Aug - 10:45:13 10° WSW 10:46:34 11° SW 10:47:56 10° SSW daylight
08 Aug - 02:23:15 10° SW 02:26:59 76° SE 02:30:45 10° ENE visible
08 Aug - 04:04:30 10° WNW 04:07:43 26° NNW 04:11:02 10° NE visible
08 Aug - 05:46:14 10° NW 05:49:06 20° N 05:52:05 10° NE daylight
08 Aug - 07:26:37 10° NW 07:30:21 39° NNE 07:34:15 10° E daylight
08 Aug - 09:06:59 10° WNW 09:10:52 43° SW 09:14:57 10° SSE daylight
09 Aug - 00:48:39 10° S 00:51:14 18° SE 00:53:47 10° E visible
09 Aug - 02:27:35 10° WSW 02:31:18 67° NNW 02:35:03 10° NE visible
09 Aug - 04:09:15 10° WNW 04:12:16 22° NNW 04:15:20 10° NE visible
09 Aug - 05:50:40 10° NW 05:53:41 21° N 05:56:48 10° ENE daylight
09 Aug - 07:30:52 10° NW 07:34:45 55° NNE 07:38:50 10° ESE daylight
09 Aug - 09:11:36 10° WNW 09:15:03 26° SW 09:18:39 10° SSE daylight
